AUR87DB EIDW-EGJB

Flight info

Callsign AUR87DB
Flight time 1h 13m
Altitude 19000
Route PESIT1N PESIT DCT BAKUR N24 ADHAV DCT ABBEW N90 ENHEL N862 SKERY
Aircraft AT76/M-SDFGIRY/S

Departure

Time 2026-04-26 14:51
Airport Dublin Airport (EIDW)

Arrival

Time 2026-04-26 16:04
Airport Guernsey Airport (EGJB)
Time Latitude Longitude Altitude Speed Heading
2026-04-26 14:35 53.42882 -6.24761 207 ft 0 kts 185°
2026-04-26 14:44 53.42890 -6.24760 207 ft 4 kts 185°
2026-04-26 14:44 53.42916 -6.24760 207 ft 4 kts 160°
2026-04-26 14:45 53.42933 -6.24772 207 ft 4 kts 192°
2026-04-26 14:45 53.42938 -6.24771 207 ft 4 kts 263°
2026-04-26 14:45 53.42938 -6.24731 207 ft 0 kts 275°
2026-04-26 14:47 53.42939 -6.24748 209 ft 7 kts 275°
2026-04-26 14:47 53.42948 -6.24909 207 ft 16 kts 275°
2026-04-26 14:47 53.42958 -6.25091 211 ft 14 kts 275°
2026-04-26 14:47 53.42972 -6.25257 212 ft 14 kts 300°
2026-04-26 14:48 53.43044 -6.25317 215 ft 12 kts 335°
2026-04-26 14:48 53.43125 -6.25378 211 ft 14 kts 336°
2026-04-26 14:48 53.43183 -6.25498 213 ft 15 kts 295°
2026-04-26 14:48 53.43266 -6.25585 211 ft 15 kts 336°
2026-04-26 14:49 53.43360 -6.25652 212 ft 14 kts 348°
2026-04-26 14:49 53.43406 -6.25553 207 ft 11 kts 92°
2026-04-26 14:49 53.43400 -6.25436 210 ft 10 kts 96°
2026-04-26 14:49 53.43391 -6.25271 211 ft 21 kts 96°
2026-04-26 14:50 53.43384 -6.25027 207 ft 20 kts 68°
2026-04-26 14:50 53.43472 -6.25056 211 ft 18 kts 300°
2026-04-26 14:50 53.43530 -6.25233 210 ft 25 kts 296°
2026-04-26 14:50 53.43593 -6.25828 207 ft 87 kts 275°
2026-04-26 14:51 53.43664 -6.27172 305 ft 132 kts 276°
2026-04-26 14:51 53.43756 -6.28706 848 ft 140 kts 274°
2026-04-26 14:51 53.43847 -6.30308 1537 ft 135 kts 277°
2026-04-26 14:51 53.43943 -6.31829 2239 ft 130 kts 277°
2026-04-26 14:52 53.44045 -6.33436 2457 ft 151 kts 276°
2026-04-26 14:52 53.44158 -6.35309 2709 ft 169 kts 277°
2026-04-26 14:52 53.44292 -6.37281 3162 ft 171 kts 277°
2026-04-26 14:52 53.44430 -6.39259 3650 ft 171 kts 277°
2026-04-26 14:53 53.44574 -6.41248 4116 ft 172 kts 277°
2026-04-26 14:53 53.44371 -6.43182 4576 ft 174 kts 236°
2026-04-26 14:53 53.43337 -6.44187 5030 ft 181 kts 187°
2026-04-26 14:53 53.42115 -6.43705 5418 ft 184 kts 160°
2026-04-26 14:54 53.40912 -6.42936 5863 ft 185 kts 161°
2026-04-26 14:54 53.39715 -6.42134 6322 ft 186 kts 159°
2026-04-26 14:54 53.38524 -6.41290 6761 ft 186 kts 159°
2026-04-26 14:54 53.37327 -6.40451 7173 ft 187 kts 160°
2026-04-26 14:55 53.36121 -6.39619 7584 ft 188 kts 160°
2026-04-26 14:55 53.34906 -6.38793 7985 ft 189 kts 161°
2026-04-26 14:55 53.33686 -6.37962 8391 ft 189 kts 161°
2026-04-26 14:55 53.32463 -6.37132 8793 ft 190 kts 161°
2026-04-26 14:56 53.31232 -6.36297 9190 ft 191 kts 161°
2026-04-26 14:56 53.29995 -6.35456 9563 ft 192 kts 161°
2026-04-26 14:56 53.28751 -6.34614 9944 ft 193 kts 161°
2026-04-26 14:56 53.27501 -6.33765 10301 ft 194 kts 161°
2026-04-26 14:57 53.26244 -6.32915 10635 ft 196 kts 161°
2026-04-26 14:57 53.24995 -6.32071 10935 ft 197 kts 161°
2026-04-26 14:57 53.23721 -6.31208 11251 ft 198 kts 161°
2026-04-26 14:57 53.22439 -6.30340 11563 ft 199 kts 161°
2026-04-26 14:58 53.21151 -6.29472 11880 ft 201 kts 161°
2026-04-26 14:58 53.19853 -6.28596 12216 ft 202 kts 160°
2026-04-26 14:58 53.18547 -6.27715 12536 ft 203 kts 160°
2026-04-26 14:58 53.17232 -6.26830 12836 ft 204 kts 160°
2026-04-26 14:59 53.15913 -6.25942 13138 ft 205 kts 160°
2026-04-26 14:59 53.14585 -6.25047 13439 ft 206 kts 160°
2026-04-26 14:59 53.13248 -6.24145 13727 ft 208 kts 160°
2026-04-26 14:59 53.12358 -6.23548 13937 ft 208 kts 160°
2026-04-26 15:00 53.10550 -6.22332 14304 ft 210 kts 160°
2026-04-26 15:00 53.09188 -6.21422 14598 ft 212 kts 160°
2026-04-26 15:00 53.07804 -6.20497 14830 ft 216 kts 159°
2026-04-26 15:00 53.06409 -6.19560 15076 ft 217 kts 159°
2026-04-26 15:01 53.05008 -6.18619 15318 ft 218 kts 159°
2026-04-26 15:01 53.03593 -6.17668 15541 ft 220 kts 159°
2026-04-26 15:01 53.02167 -6.16716 15781 ft 221 kts 159°
2026-04-26 15:01 53.00735 -6.15760 16039 ft 222 kts 159°
2026-04-26 15:02 52.99300 -6.14802 16286 ft 223 kts 159°
2026-04-26 15:02 52.97859 -6.13838 16516 ft 224 kts 159°
2026-04-26 15:02 52.96409 -6.12870 16749 ft 225 kts 159°
2026-04-26 15:02 52.94952 -6.11901 16964 ft 226 kts 159°
2026-04-26 15:03 52.93486 -6.10926 17173 ft 228 kts 159°
2026-04-26 15:03 52.92012 -6.09943 17386 ft 229 kts 159°
2026-04-26 15:03 52.90552 -6.08974 17573 ft 230 kts 159°
2026-04-26 15:03 52.89063 -6.07982 17778 ft 231 kts 159°
2026-04-26 15:04 52.87569 -6.06988 18007 ft 232 kts 159°
2026-04-26 15:04 52.86072 -6.05999 18304 ft 229 kts 159°
2026-04-26 15:04 52.84602 -6.05013 18602 ft 225 kts 159°
2026-04-26 15:04 52.83162 -6.04031 18814 ft 223 kts 159°
2026-04-26 15:05 52.81722 -6.03056 18968 ft 224 kts 160°
2026-04-26 15:05 52.80765 -6.02415 19081 ft 224 kts 160°
2026-04-26 15:05 52.78755 -6.01088 19195 ft 244 kts 160°
2026-04-26 15:05 52.77163 -6.00053 19229 ft 246 kts 160°
2026-04-26 15:06 52.75561 -5.99025 19250 ft 248 kts 160°
2026-04-26 15:06 52.73948 -5.97973 19256 ft 250 kts 160°
2026-04-26 15:06 52.72325 -5.96906 19259 ft 252 kts 160°
2026-04-26 15:06 52.70693 -5.95830 19263 ft 253 kts 160°
2026-04-26 15:07 52.67409 -5.93672 19260 ft 255 kts 160°
2026-04-26 15:07 52.65761 -5.92591 19260 ft 255 kts 160°
2026-04-26 15:07 52.64106 -5.91506 19262 ft 256 kts 160°
2026-04-26 15:08 52.62453 -5.90420 19264 ft 256 kts 160°
2026-04-26 15:08 52.60801 -5.89329 19266 ft 256 kts 161°
2026-04-26 15:08 52.59154 -5.88226 19265 ft 255 kts 161°
2026-04-26 15:08 52.57509 -5.87129 19265 ft 255 kts 161°
2026-04-26 15:09 52.55866 -5.86045 19267 ft 254 kts 161°
2026-04-26 15:09 52.54222 -5.84975 19267 ft 254 kts 161°
2026-04-26 15:09 52.52580 -5.83909 19263 ft 254 kts 161°
2026-04-26 15:09 52.50941 -5.82844 19263 ft 253 kts 161°
2026-04-26 15:10 52.49304 -5.81779 19261 ft 253 kts 161°
2026-04-26 15:10 52.48222 -5.81074 19264 ft 253 kts 161°
2026-04-26 15:10 52.46062 -5.79667 19267 ft 252 kts 161°
2026-04-26 15:10 52.44432 -5.78606 19265 ft 252 kts 161°
2026-04-26 15:11 52.42797 -5.77543 19266 ft 253 kts 161°
2026-04-26 15:11 52.41162 -5.76469 19266 ft 253 kts 158°
2026-04-26 15:11 52.39660 -5.74960 19269 ft 254 kts 149°
2026-04-26 15:11 52.38198 -5.73329 19266 ft 255 kts 149°
2026-04-26 15:12 52.36734 -5.71686 19269 ft 255 kts 149°
2026-04-26 15:12 52.35266 -5.70043 19270 ft 256 kts 149°
2026-04-26 15:12 52.33791 -5.68418 19270 ft 256 kts 150°
2026-04-26 15:12 52.32310 -5.66804 19272 ft 256 kts 150°
2026-04-26 15:13 52.30824 -5.65191 19268 ft 257 kts 150°
2026-04-26 15:13 52.29337 -5.63576 19269 ft 257 kts 150°
2026-04-26 15:13 52.27849 -5.61963 19269 ft 257 kts 150°
2026-04-26 15:13 52.26358 -5.60351 19269 ft 257 kts 150°
2026-04-26 15:14 52.24869 -5.58739 19269 ft 257 kts 150°
2026-04-26 15:14 52.23377 -5.57130 19273 ft 257 kts 150°
2026-04-26 15:14 52.21888 -5.55519 19272 ft 257 kts 150°
2026-04-26 15:14 52.20396 -5.53912 19272 ft 257 kts 150°
2026-04-26 15:15 52.18905 -5.52304 19274 ft 257 kts 150°
2026-04-26 15:15 52.17413 -5.50696 19274 ft 257 kts 150°
2026-04-26 15:15 52.15920 -5.49091 19272 ft 257 kts 150°
2026-04-26 15:15 52.14430 -5.47488 19267 ft 257 kts 150°
2026-04-26 15:16 52.12960 -5.45911 19270 ft 257 kts 150°
2026-04-26 15:16 52.11469 -5.44309 19271 ft 257 kts 150°
2026-04-26 15:16 52.09978 -5.42711 19272 ft 257 kts 150°
2026-04-26 15:16 52.08488 -5.41113 19275 ft 257 kts 150°
2026-04-26 15:17 52.06996 -5.39515 19273 ft 257 kts 150°
2026-04-26 15:17 52.05988 -5.38437 19273 ft 257 kts 150°
2026-04-26 15:17 52.04012 -5.36321 19277 ft 257 kts 150°
2026-04-26 15:17 52.02515 -5.34725 19275 ft 257 kts 150°
2026-04-26 15:18 52.01019 -5.33126 19271 ft 257 kts 150°
2026-04-26 15:18 51.99523 -5.31533 19272 ft 257 kts 150°
2026-04-26 15:18 51.98026 -5.29937 19274 ft 257 kts 150°
2026-04-26 15:18 51.96529 -5.28344 19276 ft 257 kts 150°
2026-04-26 15:19 51.95031 -5.26750 19272 ft 258 kts 150°
2026-04-26 15:19 51.93534 -5.25153 19271 ft 257 kts 150°
2026-04-26 15:19 51.92038 -5.23562 19269 ft 257 kts 150°
2026-04-26 15:19 51.90552 -5.21937 19273 ft 259 kts 148°
2026-04-26 15:20 51.89127 -5.20147 19272 ft 260 kts 145°
2026-04-26 15:20 51.87737 -5.18284 19274 ft 260 kts 144°
2026-04-26 15:20 51.86344 -5.16413 19278 ft 261 kts 144°
2026-04-26 15:20 51.84940 -5.14551 19268 ft 261 kts 145°
2026-04-26 15:21 51.83526 -5.12716 19267 ft 261 kts 146°
2026-04-26 15:21 51.82108 -5.10888 19271 ft 260 kts 146°
2026-04-26 15:21 51.80692 -5.09067 19271 ft 261 kts 146°
2026-04-26 15:21 51.79274 -5.07241 19271 ft 261 kts 146°
2026-04-26 15:22 51.77852 -5.05420 19267 ft 261 kts 146°
2026-04-26 15:22 51.76434 -5.03598 19267 ft 260 kts 146°
2026-04-26 15:22 51.75017 -5.01784 19268 ft 260 kts 146°
2026-04-26 15:22 51.73602 -4.99969 19272 ft 260 kts 146°
2026-04-26 15:23 51.72185 -4.98157 19273 ft 260 kts 146°
2026-04-26 15:23 51.70768 -4.96342 19269 ft 260 kts 146°
2026-04-26 15:23 51.69369 -4.94556 19266 ft 260 kts 146°
2026-04-26 15:23 51.67951 -4.92749 19270 ft 260 kts 146°
2026-04-26 15:24 51.66532 -4.90937 19269 ft 260 kts 146°
2026-04-26 15:24 51.65111 -4.89127 19272 ft 261 kts 146°
2026-04-26 15:24 51.63690 -4.87314 19270 ft 261 kts 146°
2026-04-26 15:24 51.62265 -4.85505 19273 ft 261 kts 146°
2026-04-26 15:25 51.60840 -4.83692 19272 ft 261 kts 146°
2026-04-26 15:25 51.59875 -4.82467 19261 ft 261 kts 146°
2026-04-26 15:25 51.57986 -4.80071 19262 ft 261 kts 146°
2026-04-26 15:25 51.56561 -4.78262 19266 ft 261 kts 146°
2026-04-26 15:26 51.55137 -4.76456 19262 ft 261 kts 146°
2026-04-26 15:26 51.53714 -4.74653 19264 ft 261 kts 146°
2026-04-26 15:26 51.52290 -4.72850 19265 ft 261 kts 146°
2026-04-26 15:26 51.50864 -4.71051 19263 ft 261 kts 146°
2026-04-26 15:27 51.49440 -4.69251 19267 ft 261 kts 146°
2026-04-26 15:27 51.48015 -4.67454 19262 ft 261 kts 146°
2026-04-26 15:27 51.47071 -4.66261 19268 ft 261 kts 146°
2026-04-26 15:27 51.45642 -4.64465 19264 ft 261 kts 146°
2026-04-26 15:28 51.44212 -4.62663 19260 ft 261 kts 146°
2026-04-26 15:28 51.42781 -4.60864 19264 ft 261 kts 146°
2026-04-26 15:28 51.41350 -4.59063 19262 ft 262 kts 146°
2026-04-26 15:28 51.39920 -4.57265 19262 ft 261 kts 146°
2026-04-26 15:29 51.38487 -4.55469 19263 ft 262 kts 146°
2026-04-26 15:29 51.37055 -4.53671 19263 ft 262 kts 146°
2026-04-26 15:29 51.34188 -4.50081 19263 ft 262 kts 146°
2026-04-26 15:30 51.31318 -4.46492 19263 ft 262 kts 146°
2026-04-26 15:30 51.29885 -4.44700 19263 ft 262 kts 146°
2026-04-26 15:30 51.28448 -4.42910 19264 ft 262 kts 146°
2026-04-26 15:31 51.27013 -4.41119 19267 ft 262 kts 146°
2026-04-26 15:31 51.24144 -4.37543 19262 ft 261 kts 147°
2026-04-26 15:31 51.22710 -4.35763 19264 ft 261 kts 147°
2026-04-26 15:32 51.20331 -4.32802 19262 ft 261 kts 147°
2026-04-26 15:32 51.18416 -4.30428 19263 ft 260 kts 147°
2026-04-26 15:32 51.16987 -4.28654 19262 ft 260 kts 147°
2026-04-26 15:33 51.15557 -4.26886 19257 ft 260 kts 147°
2026-04-26 15:33 51.14125 -4.25116 19264 ft 260 kts 146°
2026-04-26 15:33 51.12712 -4.23367 19264 ft 261 kts 146°
2026-04-26 15:33 51.11275 -4.21589 19263 ft 262 kts 146°
2026-04-26 15:34 51.09836 -4.19810 19257 ft 262 kts 146°
2026-04-26 15:34 51.08396 -4.18033 19262 ft 262 kts 147°
2026-04-26 15:34 51.06951 -4.16254 19263 ft 263 kts 146°
2026-04-26 15:34 51.05502 -4.14469 19261 ft 264 kts 146°
2026-04-26 15:35 51.04051 -4.12682 19256 ft 264 kts 146°
2026-04-26 15:35 51.02598 -4.10894 19251 ft 264 kts 147°
2026-04-26 15:35 51.01146 -4.09108 19256 ft 264 kts 146°
2026-04-26 15:35 50.99694 -4.07330 19248 ft 264 kts 146°
2026-04-26 15:36 50.98245 -4.05550 19247 ft 263 kts 147°
2026-04-26 15:36 50.96796 -4.03774 19258 ft 263 kts 147°
2026-04-26 15:36 50.95345 -4.01997 19248 ft 263 kts 147°
2026-04-26 15:36 50.93899 -4.00224 19252 ft 263 kts 147°
2026-04-26 15:37 50.92448 -3.98452 19257 ft 263 kts 147°
2026-04-26 15:37 50.90999 -3.96680 19254 ft 263 kts 147°
2026-04-26 15:37 50.89551 -3.94908 19261 ft 263 kts 147°
2026-04-26 15:37 50.88100 -3.93144 19257 ft 263 kts 147°
2026-04-26 15:38 50.86648 -3.91373 19262 ft 264 kts 147°
2026-04-26 15:38 50.85196 -3.89603 19258 ft 264 kts 147°
2026-04-26 15:38 50.83741 -3.87833 19256 ft 264 kts 147°
2026-04-26 15:38 50.82289 -3.86066 19255 ft 263 kts 147°
2026-04-26 15:39 50.80836 -3.84302 19251 ft 263 kts 147°
2026-04-26 15:39 50.79386 -3.82541 19250 ft 263 kts 147°
2026-04-26 15:39 50.77938 -3.80782 19249 ft 263 kts 147°
2026-04-26 15:39 50.76977 -3.79618 19253 ft 262 kts 147°
2026-04-26 15:40 50.75040 -3.77274 19251 ft 262 kts 147°
2026-04-26 15:40 50.73613 -3.75545 19257 ft 262 kts 147°
2026-04-26 15:40 50.72167 -3.73797 19256 ft 262 kts 147°
2026-04-26 15:40 50.70718 -3.72047 19261 ft 263 kts 147°
2026-04-26 15:41 50.69263 -3.70296 19262 ft 264 kts 147°
2026-04-26 15:41 50.67805 -3.68537 19268 ft 264 kts 147°
2026-04-26 15:41 50.66347 -3.66776 19271 ft 264 kts 147°
2026-04-26 15:41 50.64884 -3.65017 19269 ft 265 kts 147°
2026-04-26 15:42 50.63422 -3.63254 19267 ft 265 kts 147°
2026-04-26 15:42 50.61956 -3.61492 19262 ft 265 kts 147°
2026-04-26 15:42 50.60486 -3.59726 19258 ft 266 kts 147°
2026-04-26 15:42 50.59019 -3.57960 19250 ft 265 kts 147°
2026-04-26 15:43 50.57552 -3.56203 19258 ft 265 kts 147°
2026-04-26 15:43 50.56085 -3.54444 19260 ft 265 kts 147°
2026-04-26 15:43 50.52977 -3.51618 19255 ft 255 kts 164°
2026-04-26 15:44 50.51321 -3.50599 19262 ft 256 kts 162°
2026-04-26 15:44 50.48018 -3.48438 19266 ft 257 kts 162°
2026-04-26 15:44 50.46363 -3.47358 19255 ft 258 kts 162°
2026-04-26 15:45 50.43072 -3.45210 19263 ft 258 kts 162°
2026-04-26 15:45 50.41415 -3.44128 19260 ft 258 kts 162°
2026-04-26 15:46 50.38097 -3.41965 19259 ft 258 kts 162°
2026-04-26 15:46 50.36437 -3.40883 19257 ft 258 kts 162°
2026-04-26 15:46 50.34780 -3.39803 19242 ft 258 kts 162°
2026-04-26 15:46 50.33682 -3.39090 19256 ft 258 kts 162°
2026-04-26 15:47 50.31465 -3.37651 19256 ft 258 kts 162°
2026-04-26 15:47 50.28152 -3.35502 19250 ft 258 kts 162°
2026-04-26 15:47 50.26497 -3.34429 19252 ft 258 kts 162°
2026-04-26 15:48 50.24842 -3.33356 19251 ft 258 kts 162°
2026-04-26 15:48 50.23186 -3.32286 19252 ft 258 kts 162°
2026-04-26 15:48 50.21529 -3.31214 19251 ft 258 kts 162°
2026-04-26 15:48 50.19872 -3.30144 19243 ft 258 kts 162°
2026-04-26 15:49 50.18217 -3.29074 19250 ft 258 kts 162°
2026-04-26 15:49 50.16561 -3.28006 19241 ft 258 kts 162°
2026-04-26 15:49 50.14905 -3.26937 19245 ft 258 kts 162°
2026-04-26 15:49 50.13274 -3.25879 19244 ft 257 kts 162°
2026-04-26 15:50 50.11598 -3.24800 19250 ft 257 kts 163°
2026-04-26 15:50 50.09970 -3.23757 19242 ft 257 kts 163°
2026-04-26 15:50 50.08319 -3.22699 19241 ft 256 kts 163°
2026-04-26 15:50 50.06670 -3.21638 19240 ft 256 kts 162°
2026-04-26 15:51 50.05017 -3.20588 19162 ft 259 kts 163°
2026-04-26 15:51 50.03280 -3.19501 18698 ft 278 kts 163°
2026-04-26 15:51 50.01440 -3.18365 18172 ft 288 kts 163°
2026-04-26 15:51 49.99570 -3.17236 17634 ft 289 kts 163°
2026-04-26 15:52 49.97699 -3.16102 17115 ft 289 kts 162°
2026-04-26 15:52 49.95824 -3.14941 16447 ft 291 kts 162°
2026-04-26 15:52 49.93946 -3.13771 15742 ft 290 kts 162°
2026-04-26 15:52 49.92709 -3.12997 15275 ft 289 kts 162°
2026-04-26 15:53 49.90226 -3.11452 14374 ft 286 kts 161°
2026-04-26 15:53 49.88386 -3.10311 13667 ft 284 kts 161°
2026-04-26 15:53 49.86559 -3.09176 12930 ft 282 kts 161°
2026-04-26 15:53 49.84744 -3.08053 12209 ft 280 kts 160°
2026-04-26 15:54 49.82937 -3.06935 11504 ft 279 kts 160°
2026-04-26 15:54 49.81143 -3.05816 10816 ft 277 kts 160°
2026-04-26 15:54 49.79354 -3.04716 10137 ft 276 kts 159°
2026-04-26 15:54 49.77575 -3.03612 9404 ft 275 kts 160°
2026-04-26 15:55 49.75802 -3.02519 8678 ft 274 kts 160°
2026-04-26 15:55 49.74032 -3.01427 7964 ft 273 kts 160°
2026-04-26 15:55 49.72269 -3.00345 7282 ft 272 kts 159°
2026-04-26 15:55 49.70516 -2.99259 6602 ft 271 kts 159°
2026-04-26 15:56 49.68768 -2.98185 5890 ft 264 kts 159°
2026-04-26 15:56 49.67159 -2.97190 5413 ft 234 kts 159°
2026-04-26 15:56 49.65742 -2.96304 5201 ft 206 kts 159°
2026-04-26 15:56 49.64496 -2.95508 5094 ft 182 kts 159°
2026-04-26 15:57 49.63297 -2.94728 5068 ft 203 kts 159°
2026-04-26 15:57 49.61902 -2.93867 5047 ft 227 kts 160°
2026-04-26 15:57 49.60382 -2.92948 5035 ft 242 kts 160°
2026-04-26 15:57 49.59305 -2.92299 5029 ft 249 kts 160°
2026-04-26 15:58 49.57076 -2.91510 4898 ft 250 kts 178°
2026-04-26 15:58 49.55343 -2.91388 4517 ft 249 kts 179°
2026-04-26 15:58 49.53614 -2.91300 4139 ft 249 kts 180°
2026-04-26 15:58 49.51887 -2.91242 3764 ft 247 kts 180°
2026-04-26 15:59 49.50169 -2.91200 3433 ft 245 kts 180°
2026-04-26 15:59 49.48479 -2.91170 3197 ft 239 kts 180°
2026-04-26 15:59 49.46850 -2.91150 3096 ft 229 kts 180°
2026-04-26 15:59 49.45291 -2.91115 3049 ft 217 kts 175°
2026-04-26 16:00 49.43966 -2.90211 3026 ft 209 kts 135°
2026-04-26 16:00 49.43330 -2.88292 3021 ft 199 kts 99°
2026-04-26 16:00 49.43160 -2.86216 3016 ft 195 kts 95°
2026-04-26 16:00 49.43028 -2.84160 3012 ft 192 kts 94°
2026-04-26 16:01 49.42931 -2.82114 2951 ft 194 kts 93°
2026-04-26 16:01 49.42903 -2.80054 2721 ft 187 kts 86°
2026-04-26 16:01 49.43002 -2.78169 2484 ft 169 kts 85°
2026-04-26 16:01 49.43058 -2.76416 2260 ft 162 kts 88°
2026-04-26 16:02 49.43091 -2.74741 2048 ft 152 kts 88°
2026-04-26 16:02 49.43131 -2.73177 1852 ft 142 kts 87°
2026-04-26 16:02 49.43175 -2.71682 1658 ft 139 kts 87°
2026-04-26 16:02 49.43203 -2.70709 1533 ft 136 kts 87°
2026-04-26 16:03 49.43254 -2.68797 1301 ft 135 kts 88°
2026-04-26 16:03 49.43292 -2.67380 1106 ft 126 kts 86°
2026-04-26 16:03 49.43333 -2.66093 984 ft 118 kts 85°
2026-04-26 16:03 49.43369 -2.64841 811 ft 113 kts 85°
2026-04-26 16:04 49.43403 -2.63625 683 ft 118 kts 85°
2026-04-26 16:04 49.43437 -2.62357 483 ft 118 kts 86°
2026-04-26 16:04 49.43472 -2.61115 327 ft 112 kts 86°
2026-04-26 16:04 49.43497 -2.60203 309 ft 48 kts 87°
2026-04-26 16:05 49.43497 -2.59891 317 ft 16 kts 124°
2026-04-26 16:05 49.43403 -2.59858 322 ft 14 kts 177°
2026-04-26 16:05 49.43347 -2.59805 323 ft 6 kts 91°
2026-04-26 16:05 49.43343 -2.59755 324 ft 7 kts 134°
2026-04-26 16:06 49.43295 -2.59745 324 ft 4 kts 178°
2026-04-26 16:06 49.43284 -2.59745 324 ft 0 kts 177°